Temp
83 85 81 82 82 82 81 82 82 82 82 82 83 83 83 83 83 83 83 84 83 84 84 84 84 84 84 84 84 83 83 82 83 83 83 83 83 83 82 83 82 89 83
85 85 81 82 82 82 81 81 82 82 82 83 83 83 83 83 83 83 84 83 83 84 84 85 85 84 84 84 83 83 83 83 83 83 83 83 83 83 83 83 84 86 81
85 86 85 81 82 82 82 81 82 82 83 83 83 83 83 83 83 84 84 83 84 84 84 85 84 84 84 84 84 83 83 83 83 83 82 90 89 83 83 83 83 83 83
85 86 87 80 81 82 81 81 81 83 83 83 83 83 83 84 84 84 84 84 84 84 85 85 84 84 84 84 84 84 83 83 83 82 88 89 90 82 83 83 82 83 83
84 85 84 81 82 82 81 81 82 83 83 83 83 83 83 84 84 84 84 84 84 84 85 85 85 84 84 84 84 83 83 83 82 84 87 87 89 85 83 83 83 83 83
83 86 84 81 82 82 82 83 82 83 83 84 84 84 84 84 84 84 84 83 85 85 85 85 85 84 84 84 84 83 83 83 81 87 87 85 87 83 83 83 83 83 82
83 85 85 81 83 83 82 82 83 84 84 84 83 84 84 84 83 83 83 85 85 85 85 85 84 84 84 84 84 83 83 83 87 87 87 88 88 82 83 83 83 83 82
85 85 85 82 82 82 82 82 82 84 83 82 82 84 84 83 81 82 85 85 85 85 85 84 84 84 84 84 84 84 85 84 87 88 87 89 81 82 83 83 83 83 83
86 85 84 86 83 81 82 82 81 81 81 80 82 84 83 84 82 84 85 85 85 85 85 85 84 84 84 84 84 84 84 83 89 90 90 92 79 82 83 82 82 83 82
83 84 84 84 84 83 82 79 77 77 79 81 81 82 82 83 84 84 83 85 85 85 85 84 84 83 83 84 84 84 84 83 91 89 92 92 80 82 82 83 82 82 82
83 83 85 84 84 79 78 74 77 77 76 83 80 81 81 82 86 86 85 85 85 85 84 84 83 83 83 83 83 84 83 94 94 91 93 80 79 82 83 82 82 82 82
81 82 83 84 85 81 76 76 75 74 76 78 76 77 80 79 80 87 87 85 84 84 84 84 83 83 85 93 94 87 93 92 92 92 92 80 80 82 83 82 82 82 81
82 83 84 82 83 82 74 73 73 74 74 77 76 76 76 76 84 88 89 89 88 85 91 88 89 91 88 90 90 91 91 92 94 92 90 80 81 82 83 83 82 82 81
81 82 84 84 81 83 81 77 80 80 78 75 72 76 74 81 85 86 86 87 88 90 87 87 89 87 87 87 89 90 92 92 94 94 92 81 81 82 83 83 82 82 82
83 83 84 83 81 81 81 83 83 81 79 76 71 76 74 76 79 86 86 88 88 89 88 87 87 87 87 89 90 89 88 91 93 94 93 83 81 82 83 84 83 82 82
84 84 85 83 82 83 81 81 79 80 79 73 70 73 76 80 81 86 83 87 87 88 88 87 86 86 86 88 87 89 90 91 91 90 93 92 81 81 82 83 82 81 83
85 86 85 84 84 83 82 82 81 75 77 77 76 76 75 81 78 83 86 86 88 87 84 87 86 86 87 89 87 89 91 90 92 90 91 90 91 82 82 83 82 80 80
85 83 85 87 85 84 84 83 85 82 76 76 78 82 85 83 83 83 86 87 87 86 86 86 85 85 86 88 88 89 89 90 89 89 91 91 90 93 86 82 82 82 81
85 83 83 84 83 83 82 83 84 84 81 80 84 86 85 85 85 84 86 87 85 86 85 86 83 83 85 86 87 88 89 89 88 91 88 85 90 90 92 85 81 81 83
86 85 83 84 81 81 82 81 82 83 80 80 83 85 84 85 85 85 85 85 85 83 81 81 80 82 83 79 85 87 89 90 90 89 89 90 89 89 90 87 87 87 81
85 84 82 82 80 82 81 80 78 77 83 80 81 83 83 86 85 84 86 85 83 80 80 80 79 74 78 85 79 83 88 89 88 87 88 88 88 88 88 87 86 81 89
83 84 82 82 81 79 81 83 82 80 79 80 83 83 85 85 85 84 83 84 80 74 81 80 75 78 81 81 72 78 80 86 87 87 87 85 86 88 87 86 85 86 86
83 83 83 81 81 81 81 82 82 83 82 83 81 85 85 85 85 84 84 83 80 81 79 80 82 80 81 82 80 77 78 79 81 89 85 87 86 86 87 85 85 85 85
85 86 85 82 81 82 81 82 80 82 81 83 84 85 86 86 85 86 85 83 81 81 80 83 85 82 81 81 85 85 82 81 77 78 87 87 86 86 87 87 88 87 87
87 86 86 83 81 82 82 81 82 81 84 84 83 82 83 85 85 86 84 84 83 85 84 83 83 82 84 82 83 83 81 83 81 75 76 82 87 88 88 87 88 87 87
88 87 86 82 81 82 81 81 80 80 82 83 84 84 86 86 88 85 85 84 85 85 84 85 84 83 83 82 83 82 81 80 80 80 76 81 82 86 88 90 89 83 83
MSLP
1012.82 1012.89 1013.22 1013.27 1013.18 1013.23 1013.40 1013.57 1013.66 1013.98 1014.14 1014.48 1014.65 1014.92 1014.99 1015.33 1015.67 1015.82 1015.92 1016.19 1016.45 1016.62 1016.65 1016.88 1017.00 1017.21 1017.49 1017.66 1017.88 1018.11 1018.12 1018.26 1018.38 1018.43 1018.53 1018.58 1018.62 1018.73 1018.90 1018.86 1018.89 1018.62 1019.29
1012.79 1012.94 1013.29 1013.33 1013.40 1013.36 1013.46 1013.74 1014.03 1014.32 1014.47 1014.81 1015.00 1015.17 1015.39 1015.71 1015.94 1016.18 1016.29 1016.49 1016.70 1016.84 1016.90 1017.01 1017.18 1017.41 1017.66 1017.83 1017.97 1018.16 1018.22 1018.40 1018.48 1018.54 1018.69 1018.77 1018.80 1018.96 1019.01 1019.17 1018.96 1019.22 1019.61
1013.05 1013.08 1013.22 1013.44 1013.37 1013.55 1013.65 1014.00 1014.26 1014.64 1014.76 1015.05 1015.34 1015.55 1015.77 1016.02 1016.26 1016.30 1016.59 1016.75 1016.94 1017.10 1017.18 1017.32 1017.46 1017.63 1017.82 1017.99 1018.14 1018.31 1018.43 1018.57 1018.73 1018.83 1018.95 1018.39 1018.63 1019.14 1019.20 1019.30 1019.42 1019.55 1019.76
1013.16 1013.01 1013.10 1013.44 1013.54 1013.67 1013.86 1014.17 1014.47 1014.69 1014.96 1015.32 1015.60 1015.96 1016.10 1016.36 1016.48 1016.62 1016.87 1017.03 1017.14 1017.28 1017.39 1017.49 1017.72 1017.88 1017.99 1018.22 1018.39 1018.52 1018.61 1018.78 1018.95 1019.04 1018.57 1018.50 1018.66 1019.40 1019.31 1019.47 1019.58 1019.68 1019.90
1013.34 1013.16 1013.03 1013.14 1013.45 1013.68 1013.88 1014.27 1014.56 1015.05 1015.33 1015.55 1015.92 1016.25 1016.42 1016.61 1016.73 1016.91 1017.12 1017.21 1017.41 1017.54 1017.70 1017.75 1017.94 1018.14 1018.23 1018.48 1018.66 1018.73 1018.85 1019.04 1019.17 1019.02 1018.79 1018.84 1018.65 1019.26 1019.42 1019.48 1019.53 1019.69 1020.04
1013.56 1013.10 1012.80 1012.92 1013.21 1013.69 1014.02 1014.17 1014.76 1015.11 1015.51 1015.84 1016.24 1016.43 1016.57 1016.74 1016.98 1017.07 1017.35 1017.48 1017.51 1017.75 1017.96 1018.05 1018.24 1018.40 1018.53 1018.71 1018.88 1018.93 1019.03 1019.11 1019.27 1018.98 1018.84 1019.08 1018.86 1019.32 1019.47 1019.58 1019.61 1019.71 1020.01
1013.59 1013.33 1013.16 1013.12 1013.29 1013.73 1014.17 1014.48 1014.86 1015.30 1015.81 1016.13 1016.46 1016.61 1016.75 1016.96 1017.21 1017.29 1017.39 1017.59 1017.78 1017.94 1018.15 1018.41 1018.52 1018.63 1018.77 1018.98 1019.06 1019.07 1019.01 1019.08 1018.96 1019.03 1018.90 1018.87 1018.86 1019.38 1019.49 1019.59 1019.64 1019.83 1020.07
1013.74 1013.68 1013.64 1013.55 1013.72 1013.96 1014.30 1014.60 1014.97 1015.49 1016.03 1016.60 1016.85 1016.82 1016.99 1017.31 1017.57 1017.60 1017.76 1017.91 1018.10 1018.26 1018.52 1018.76 1018.86 1018.86 1018.98 1019.13 1019.09 1018.94 1018.76 1018.93 1019.02 1019.03 1018.98 1018.92 1019.38 1019.42 1019.48 1019.56 1019.66 1019.92 1020.11
1014.03 1013.94 1014.02 1013.81 1014.14 1014.29 1014.63 1014.92 1015.41 1016.00 1016.69 1017.10 1017.09 1017.08 1017.26 1017.55 1017.82 1017.86 1018.08 1018.25 1018.45 1018.61 1018.84 1018.97 1019.08 1019.10 1019.15 1019.15 1019.14 1019.03 1019.00 1019.04 1018.86 1018.94 1019.02 1019.01 1019.60 1019.50 1019.50 1019.63 1019.75 1019.89 1020.09
1014.60 1014.49 1014.50 1014.53 1014.45 1014.51 1015.08 1015.98 1013.41 1016.00 1017.25 1017.59 1017.59 1017.50 1017.56 1017.77 1017.89 1018.28 1018.52 1018.57 1018.73 1018.93 1019.13 1019.24 1019.29 1019.30 1019.33 1019.30 1019.27 1019.25 1019.10 1019.09 1018.72 1018.96 1018.96 1019.03 1019.66 1019.63 1019.66 1019.68 1019.81 1019.92 1020.02
1014.95 1015.07 1014.90 1014.81 1014.78 1015.54 1015.96 1016.59 1016.25 1017.31 1017.41 1017.58 1017.94 1017.93 1017.89 1018.14 1018.05 1018.47 1018.66 1018.85 1019.09 1019.25 1019.38 1019.47 1019.55 1019.55 1019.52 1019.46 1019.44 1019.42 1019.29 1018.72 1018.57 1018.79 1018.82 1019.45 1019.75 1019.74 1019.82 1019.83 1019.93 1020.03 1020.13
1015.03 1015.25 1015.36 1015.08 1015.10 1015.99 1016.59 1016.71 1016.92 1017.15 1017.78 1018.02 1018.47 1018.47 1018.39 1018.58 1018.58 1018.61 1018.78 1019.10 1019.34 1019.46 1019.57 1019.64 1019.70 1019.67 1019.53 1019.19 1019.10 1019.30 1018.72 1018.60 1018.61 1018.68 1018.73 1019.44 1019.61 1019.63 1019.71 1019.84 1019.93 1020.04 1020.17
1015.32 1015.51 1015.71 1015.82 1015.69 1016.11 1016.65 1016.33 1016.92 1017.51 1018.12 1018.47 1018.75 1018.86 1018.84 1018.86 1018.82 1018.76 1018.96 1019.07 1019.31 1019.58 1019.35 1019.55 1019.54 1019.38 1019.40 1019.40 1019.26 1019.03 1018.82 1018.50 1018.27 1018.52 1018.58 1019.33 1019.24 1019.36 1019.45 1019.66 1019.86 1020.01 1020.18
1015.62 1015.91 1016.02 1016.12 1016.19 1016.32 1016.77 1017.35 1017.42 1017.74 1018.32 1018.76 1018.83 1018.93 1019.04 1019.28 1019.12 1019.27 1019.17 1019.28 1019.42 1019.48 1019.51 1019.51 1019.40 1019.50 1019.47 1019.46 1019.23 1018.93 1018.54 1018.35 1018.06 1018.09 1018.24 1018.90 1019.09 1019.21 1019.23 1019.31 1019.61 1019.89 1020.03
1015.52 1015.97 1016.11 1016.38 1016.64 1016.69 1016.98 1017.15 1017.44 1017.88 1018.41 1019.12 1019.41 1019.13 1018.99 1019.30 1019.61 1019.36 1019.34 1019.23 1019.41 1019.41 1019.39 1019.37 1019.33 1019.17 1019.16 1018.98 1018.94 1018.84 1018.67 1018.19 1018.00 1017.92 1018.01 1018.50 1018.73 1018.87 1019.02 1018.98 1019.18 1019.50 1019.68
1015.47 1015.90 1016.21 1016.45 1016.86 1017.00 1017.21 1017.53 1017.93 1018.35 1018.66 1019.31 1020.08 1019.52 1019.71 1019.57 1019.51 1019.32 1019.43 1019.21 1019.17 1019.24 1019.21 1019.16 1019.14 1019.03 1018.92 1018.81 1018.70 1018.49 1018.26 1018.01 1017.87 1017.91 1017.70 1017.84 1018.31 1018.52 1018.67 1018.78 1018.73 1019.11 1019.18
1015.35 1015.84 1016.21 1016.51 1016.73 1017.18 1017.43 1017.74 1018.13 1018.79 1018.83 1019.17 1019.51 1019.49 1019.77 1019.55 1019.48 1019.35 1019.16 1019.05 1018.95 1018.93 1018.95 1018.75 1018.72 1018.69 1018.54 1018.30 1018.34 1018.04 1017.75 1017.58 1017.33 1017.38 1017.41 1017.48 1017.33 1017.91 1018.10 1018.32 1018.71 1018.82 1018.71
1015.18 1015.84 1016.25 1016.52 1016.81 1017.23 1017.51 1017.82 1018.04 1018.55 1018.93 1018.98 1019.29 1019.51 1019.34 1019.39 1019.41 1019.40 1019.00 1018.77 1018.84 1018.72 1018.55 1018.45 1018.53 1018.42 1018.31 1018.14 1017.84 1017.64 1017.47 1017.16 1017.04 1017.04 1016.95 1016.91 1016.99 1016.88 1017.31 1017.69 1018.00 1018.17 1018.38
1015.02 1015.64 1016.13 1016.50 1016.91 1017.19 1017.52 1017.91 1018.14 1018.33 1018.63 1019.07 1019.08 1018.90 1018.86 1018.94 1019.13 1019.16 1018.86 1018.68 1018.76 1018.54 1018.40 1018.36 1018.37 1018.48 1018.25 1017.95 1017.68 1017.27 1017.09 1016.94 1016.70 1016.52 1016.56 1016.73 1016.48 1016.60 1016.50 1016.82 1017.30 1017.43 1017.67
1014.71 1015.34 1015.93 1016.37 1016.91 1017.13 1017.33 1017.79 1018.05 1018.37 1018.61 1018.78 1018.67 1018.59 1018.60 1018.59 1018.70 1018.77 1018.71 1018.75 1018.75 1018.55 1018.52 1018.50 1018.44 1018.37 1018.34 1018.13 1017.70 1017.01 1016.60 1016.38 1016.22 1016.13 1016.05 1015.90 1015.86 1015.99 1016.08 1016.47 1016.59 1016.57 1016.98
1014.53 1015.01 1015.62 1016.12 1016.60 1017.07 1017.32 1017.61 1017.79 1018.09 1017.97 1018.21 1018.21 1018.15 1018.27 1018.15 1018.22 1018.35 1018.20 1018.32 1018.44 1018.48 1018.41 1018.37 1018.40 1018.27 1017.91 1017.79 1017.55 1016.75 1016.03 1015.83 1015.89 1015.96 1015.82 1015.76 1015.58 1015.65 1015.76 1016.07 1016.26 1016.59 1016.15
1014.08 1014.56 1015.18 1015.75 1016.28 1016.79 1017.15 1017.28 1017.53 1017.75 1017.59 1017.80 1017.53 1017.66 1017.65 1017.68 1017.74 1017.85 1017.87 1017.90 1018.02 1017.76 1018.05 1017.97 1018.31 1017.96 1017.63 1017.61 1017.51 1016.97 1015.90 1015.42 1015.82 1015.70 1015.69 1015.74 1015.62 1015.43 1015.42 1015.60 1015.93 1016.00 1016.11
1013.64 1014.02 1014.60 1015.40 1015.87 1016.38 1016.80 1017.19 1017.29 1017.43 1017.37 1017.36 1017.39 1017.24 1017.13 1017.25 1017.31 1017.37 1017.40 1017.43 1017.63 1017.74 1017.68 1017.68 1017.73 1017.82 1017.41 1017.36 1017.40 1017.25 1016.23 1015.47 1015.64 1015.15 1015.37 1015.36 1015.35 1015.24 1015.08 1015.25 1015.44 1015.70 1015.88
1012.98 1013.54 1014.18 1014.97 1015.54 1016.01 1016.47 1016.76 1017.00 1017.01 1016.95 1016.98 1017.01 1016.95 1016.85 1016.87 1016.92 1016.98 1017.04 1017.10 1017.20 1017.16 1017.24 1017.21 1017.17 1017.31 1017.39 1016.89 1016.76 1016.75 1016.82 1016.66 1016.03 1015.01 1014.89 1014.93 1015.04 1014.78 1014.54 1014.59 1014.58 1014.90 1015.20
1012.80 1013.11 1013.62 1014.49 1015.20 1015.66 1016.04 1016.43 1016.71 1016.84 1016.82 1016.96 1017.00 1016.93 1016.83 1016.67 1016.64 1016.56 1016.62 1016.61 1016.68 1016.58 1016.61 1016.67 1016.71 1016.90 1016.90 1016.82 1016.51 1016.42 1016.51 1016.31 1016.28 1016.14 1014.97 1014.51 1014.47 1014.35 1014.31 1014.26 1014.20 1014.41 1014.74
1012.45 1012.95 1013.38 1014.05 1014.62 1015.22 1015.80 1016.13 1016.36 1016.44 1016.51 1016.60 1016.52 1016.42 1016.16 1016.09 1015.96 1015.94 1016.10 1016.23 1016.20 1016.18 1016.19 1016.17 1016.24 1016.35 1016.38 1016.44 1016.36 1016.35 1016.25 1016.05 1015.74 1015.62 1015.31 1014.60 1014.23 1013.96 1014.04 1013.97 1013.95 1014.42 1014.62
Wind_Speed
5 5 3 2 6 8 11 14 17 19 22 21 20 20 19 19 17 17 17 16 13 12 13 13 14 13 12 10 8 8 9 9 10 10 10 11 10 9 10 11 11 12 13
4 5 3 2 7 9 12 13 17 19 21 20 19 18 19 18 17 16 15 14 11 11 13 13 13 13 12 11 9 9 9 8 8 9 10 9 10 10 11 11 7 14 14
3 3 2 3 6 10 13 14 17 19 21 20 19 18 18 17 16 15 14 12 11 11 12 13 13 13 13 12 10 9 7 7 7 7 6 6 9 9 11 10 11 13 14
5 5 2 1 6 11 14 15 17 20 20 19 18 16 16 15 15 14 13 12 12 12 13 14 14 13 13 12 12 10 8 7 6 5 4 5 8 8 10 11 10 12 13
6 8 7 5 11 13 14 16 18 18 19 18 17 14 14 12 13 12 12 12 13 13 13 14 15 14 13 12 10 8 9 7 5 2 5 5 4 8 8 10 11 11 9
8 10 8 5 15 16 16 16 19 19 19 17 14 13 12 12 10 11 13 14 15 14 13 14 13 12 11 9 8 5 3 3 4 5 5 7 4 7 6 8 7 8 9
8 10 9 9 17 15 16 17 20 20 18 15 13 13 12 11 10 13 15 15 15 15 13 12 11 9 8 6 3 1 3 3 2 4 5 4 7 5 5 7 7 8 7
9 10 9 10 13 14 16 18 20 20 18 15 11 12 11 12 14 10 14 14 14 13 12 10 9 7 6 4 3 4 3 6 5 3 4 3 6 2 6 6 6 6 7
10 10 11 9 6 11 15 16 22 21 18 14 9 9 9 17 16 11 13 13 12 12 10 8 7 5 5 5 5 6 5 5 3 2 2 2 3 2 3 5 6 6 7
9 9 10 8 8 10 10 19 17 18 14 12 5 5 10 13 14 13 11 11 11 10 8 6 5 3 3 4 4 5 4 4 1 3 2 2 4 3 4 2 5 6 7
7 8 9 10 11 16 17 17 21 22 11 13 4 10 9 7 9 10 10 10 9 8 6 5 2 2 2 2 4 4 3 2 2 3 2 7 5 4 4 5 4 5 6
6 8 9 9 11 13 5 7 9 10 4 6 4 6 6 7 4 6 9 8 7 6 4 3 2 3 3 3 2 4 4 4 3 3 3 7 8 8 7 7 7 6 7
5 5 7 7 7 12 7 5 4 4 3 5 4 3 5 4 3 4 3 3 2 4 1 1 1 1 4 4 4 5 6 6 3 3 3 8 11 11 10 9 9 9 8
5 5 6 7 6 9 8 7 8 6 6 5 4 4 4 3 3 2 2 2 1 1 2 2 2 4 5 5 6 7 8 6 5 3 4 11 13 13 13 12 11 10 10
6 6 6 6 6 6 8 6 7 8 6 9 3 4 5 3 2 2 2 2 1 1 2 2 4 4 5 6 6 6 8 9 8 5 4 10 13 15 15 15 14 12 11
6 7 7 6 6 6 6 7 6 7 11 11 2 5 4 2 2 2 2 3 3 2 2 3 4 6 6 7 7 7 8 7 8 8 5 5 13 15 16 17 11 11 14
7 7 8 6 7 7 6 6 6 3 5 6 8 7 5 5 3 4 3 4 4 4 4 4 5 5 7 6 8 7 7 9 9 9 8 6 6 16 17 17 14 18 16
8 9 8 7 7 7 6 5 5 6 3 4 2 5 6 5 5 5 5 4 4 3 3 4 5 5 6 7 7 8 7 8 9 10 9 7 7 7 11 17 16 15 20
10 10 10 9 8 8 7 5 5 5 4 4 5 6 6 6 6 6 5 5 5 4 4 5 5 4 7 8 8 8 7 7 8 8 9 8 9 8 7 8 16 18 19
11 11 9 9 8 7 5 4 3 5 5 6 7 7 8 7 8 6 5 6 5 5 5 5 6 6 7 6 8 9 8 8 8 8 9 8 9 9 9 8 7 10 17
10 11 11 10 9 7 5 4 3 5 6 5 6 8 8 8 7 6 5 5 5 4 7 7 3 4 3 2 5 6 7 7 7 5 5 6 7 7 7 7 6 5 6
11 12 11 11 11 8 7 5 4 3 4 4 5 7 8 8 8 7 7 6 5 3 9 6 3 3 3 3 2 5 5 3 1 4 4 5 6 5 5 6 7 8 6
12 12 11 11 11 10 9 6 4 2 3 3 4 5 7 9 9 9 9 7 6 6 6 5 4 5 4 2 6 3 4 3 8 1 3 3 5 5 5 7 7 7 6
13 11 10 10 11 10 10 8 9 7 6 3 4 5 6 8 9 10 10 8 7 5 7 6 5 5 5 5 3 3 5 5 5 7 2 5 5 6 6 5 6 8 7
13 12 12 10 10 9 9 9 8 9 6 3 4 5 6 6 8 9 9 8 8 7 7 7 6 6 5 6 5 4 4 4 5 5 8 7 6 3 4 5 6 4 7
11 12 11 12 11 10 11 11 12 11 9 6 6 6 5 5 5 7 7 7 8 7 8 7 8 9 7 6 5 5 6 6 6 5 6 7 8 4 4 3 4 5 4
Wind_Direction
89 96 53 24 106 128 136 123 125 123 124 122 119 116 111 111 110 112 115 117 114 117 122 119 116 121 118 124 126 116 110 108 106 107 112 119 124 125 115 117 138 124 128
98 91 43 358 119 134 139 124 124 128 128 124 121 115 113 112 114 112 115 117 118 123 130 125 120 118 115 116 119 112 106 102 105 111 118 123 125 120 115 115 126 108 128
68 64 33 360 135 142 142 139 130 131 130 128 122 116 116 117 116 114 113 111 119 128 123 117 118 120 117 117 112 102 103 98 101 94 119 134 116 123 121 121 114 126 127
21 353 299 237 174 147 147 143 137 136 129 130 124 117 115 117 116 115 117 120 118 120 123 120 119 120 120 117 114 106 91 77 80 85 107 117 121 124 128 129 126 126 130
24 349 333 219 173 151 151 145 144 143 137 134 125 118 119 120 118 123 133 120 127 121 122 122 117 119 117 117 113 112 104 98 95 133 104 93 118 121 127 129 136 142 162
18 3 21 140 159 151 154 149 145 144 138 133 131 124 125 124 127 133 143 127 124 125 121 122 121 122 119 116 114 120 116 89 142 100 105 102 110 105 142 136 137 141 150
35 27 39 102 143 147 154 155 144 138 137 142 130 133 128 129 122 128 129 133 125 126 125 120 120 117 105 99 98 184 227 190 161 112 94 90 95 150 148 144 152 149 157
45 44 41 90 134 149 155 154 145 140 125 112 124 131 133 117 97 125 130 125 128 126 120 119 121 114 95 63 32 1 194 185 179 107 92 92 70 86 154 170 156 158 158
49 48 47 67 112 152 146 153 143 116 105 77 94 124 134 134 141 141 124 121 125 125 127 122 112 100 80 56 44 37 72 133 171 75 131 143 102 119 127 131 150 170 164
51 53 64 59 73 98 111 95 106 109 118 126 65 97 125 122 127 128 124 128 122 120 121 115 105 86 58 45 13 18 43 151 230 195 192 120 174 170 153 157 169 179 177
65 57 66 68 75 107 115 135 141 136 150 123 50 70 103 100 117 125 122 124 113 115 116 111 96 49 4 20 334 333 272 334 258 235 236 138 198 206 184 179 190 192 190
76 62 68 62 84 100 89 112 119 144 142 103 59 58 75 73 100 101 115 110 110 104 98 76 19 341 279 330 297 259 292 295 279 270 247 173 202 215 203 197 198 205 197
98 79 82 69 81 111 133 99 101 125 90 91 98 68 67 43 61 71 88 85 75 69 75 18 299 296 349 340 324 311 307 299 289 254 231 202 215 218 218 207 203 204 206
154 126 115 90 89 98 115 123 128 118 110 79 23 36 65 77 56 45 29 62 41 41 344 343 319 332 323 305 305 317 308 297 287 285 233 207 222 224 224 216 212 209 210
170 150 149 124 110 109 115 121 118 119 109 102 29 31 330 31 16 27 5 333 310 307 315 325 313 315 311 312 310 309 312 290 290 281 276 207 222 225 231 228 214 214 217
184 161 163 164 130 128 122 134 120 127 124 114 182 274 246 261 290 326 306 292 290 281 286 301 292 296 301 300 295 288 294 291 278 280 270 247 226 227 231 235 224 234 224
194 174 176 178 164 154 147 149 143 132 158 156 187 215 208 241 237 272 283 291 310 281 272 265 280 275 276 283 282 283 280 278 275 269 269 248 233 221 229 229 227 207 231
198 193 186 183 189 177 169 168 164 168 171 219 243 229 249 262 276 274 279 296 330 302 277 271 289 296 292 291 293 291 288 281 281 269 265 259 247 249 216 227 226 223 216
199 198 195 189 187 192 181 182 200 212 232 241 239 252 259 256 256 261 266 283 293 290 277 287 283 284 298 298 294 287 277 273 268 265 264 264 255 249 247 212 224 232 224
199 196 202 194 187 199 179 194 225 219 215 231 241 243 247 249 250 250 258 276 290 296 292 287 286 295 282 289 304 297 282 267 254 254 258 260 254 253 250 249 237 233 224
195 196 197 197 187 181 191 215 249 247 252 227 230 239 251 250 242 241 258 265 268 292 300 298 314 303 291 319 345 293 289 272 270 263 261 265 270 267 260 242 251 246 232
193 197 199 206 193 190 195 216 213 191 221 241 249 241 238 241 243 239 240 248 224 249 265 259 209 272 267 225 233 293 302 295 227 264 254 269 284 275 260 245 236 243 250
194 197 199 203 197 195 199 195 197 210 242 231 226 243 240 244 245 240 244 246 241 238 264 267 239 232 281 238 228 265 298 306 323 195 265 276 290 273 262 244 232 238 245
207 202 205 195 197 193 190 206 213 231 242 247 256 261 262 253 250 244 243 241 244 241 249 249 242 241 232 282 270 233 254 288 303 304 275 304 303 279 266 242 225 222 224
197 200 205 197 194 195 195 208 217 232 236 259 258 266 249 248 242 240 234 232 232 239 243 244 246 239 239 268 266 275 269 263 258 268 301 319 314 312 285 271 211 227 221
199 202 206 203 203 199 200 204 215 230 232 237 244 260 260 261 252 237 238 236 241 243 250 253 250 241 240 241 254 249 264 280 286 270 280 304 317 326 326 307 242 212 228